Flight Track Log - Related Links

Times and Time Zones

All times are in EDT time to prevent confusion due to time zone crossing. See the AWI3808 flight status page for this flight to view local times or setup timezone preferences in your user account.

Time Position Orientation Groundspeed Altitude Reporting Facility
EDT Latitude Longitude Course Direction KTS MPH feet Rate Location/Type
Mon 03:59:02 PM 40.4889 -80.2053 82° East 162 186 1,900  Level FAA TRACON SMA TRACON (SMA)
Mon 03:59:23 PM 40.4911 -80.1861 81° East 179 206 2,600 1,800 Climbing FAA TRACON SMA TRACON (SMA)
Mon 03:59:42 PM 40.4950 -80.1647 77° East 202 232 3,100 1,950 Climbing FAA TRACON SMA TRACON (SMA)
Mon 04:00:03 PM 40.5011 -80.1342 75° East 238 274 3,900 2,200 Climbing FAA TRACON SMA TRACON (SMA)
Mon 04:00:42 PM 40.5078 -80.0756 81° East 278 320 5,300 2,700 Climbing FAA TRACON SMA TRACON (SMA)
Mon 04:01:00 PM 40.5182 -79.8563 78° East  Level Estimated
Mon 04:01:03 PM 40.5125 -80.0375 81° East 277 319 6,600  Level FAA TRACON SMA TRACON (SMA)
Mon 04:01:22 PM 40.5144 -80.0053 85° East 283 326 7,500 2,700 Climbing FAA TRACON SMA TRACON (SMA)
Mon 04:01:43 PM 40.5175 -79.9731 83° East 289 333 8,400 2,780 Climbing FAA TRACON SMA TRACON (SMA)
Mon 04:02:00 PM 40.5269 -79.7307 83° East  Level Estimated
Mon 04:02:03 PM 40.5242 -79.9339 77° East 301 346 9,400  Level FAA TRACON SMA TRACON (SMA)
Mon 04:02:22 PM 40.5281 -79.8964 82° East 314 361 10,000 1,350 Climbing FAA TRACON SMA TRACON (SMA)
Mon 04:02:43 PM 40.5331 -79.8592 80° East 335 386 10,300 1,050 Climbing FAA TRACON SMA TRACON (SMA)
Mon 04:03:00 PM 40.5590 -79.6119 70° East  Level FlightAware Approximate
Mon 04:03:02 PM 40.5433 -79.8128 74° East 358 412 10,700  Level FAA TRACON SMA TRACON (SMA)
Mon 04:03:23 PM 40.5453 -79.7675 87° East 374 430 11,300 1,756 Climbing FAA TRACON SMA TRACON (SMA)
Mon 04:03:43 PM 40.5508 -79.7253 80° East 378 435 11,900 2,250 Climbing FAA TRACON SMA TRACON (SMA)
Mon 04:04:00 PM 40.5668 -79.4862 82° East  Level Estimated
Mon 04:04:03 PM 40.5581 -79.6731 80° East 377 434 12,800  Level FAA TRACON SMA TRACON (SMA)
Mon 04:04:23 PM 40.5633 -79.6311 81° East 379 436 13,300 1,538 Climbing FAA TRACON SMA TRACON (SMA)
Mon 04:04:42 PM 40.5686 -79.5886 81° East 381 438 13,800 1,950 Climbing FAA TRACON SMA TRACON (SMA)
Mon 04:05:03 PM 40.5756 -79.5353 80° East 384 442 14,600 1,902 Climbing FAA TRACON SMA TRACON (SMA)
Mon 04:05:23 PM 40.5811 -79.4922 80° East 385 443 15,100 1,500 Climbing FAA TRACON SMA TRACON (SMA)
Mon 04:05:43 PM 40.5867 -79.4492 80° East 387 445 15,600 1,500 Climbing FAA TRACON SMA TRACON (SMA)
Mon 04:06:03 PM 40.5942 -79.3944 80° East 391 450 16,100 1,385 Climbing FAA TRACON SMA TRACON (SMA)
Mon 04:06:22 PM 40.5997 -79.3506 81° East 395 455 16,500 1,050 Climbing FAA TRACON SMA TRACON (SMA)
Mon 04:06:43 PM 40.6053 -79.3058 81° East 400 460 16,800 1,050 Climbing FAA TRACON SMA TRACON (SMA)
Mon 04:07:02 PM 40.6125 -79.2489 80° East 407 468 17,200 1,200 Climbing FAA TRACON SMA TRACON (SMA)
Mon 04:07:23 PM 40.6186 -79.2028 80° East 412 474 17,600 732 Climbing FAA TRACON SMA TRACON (SMA)
Mon 04:07:43 PM 40.6292 -79.1625 71° East 415 478 17,700 923 Climbing FAA TRACON SMA TRACON (SMA)
Mon 04:08:02 PM 40.6314 -79.0981 87° East 420 483 18,200 915 Climbing FAA TRACON SMA TRACON (SMA)
Mon 04:08:42 PM 40.6361 -79.0628 80° East 421 484 18,600 393 Climbing FAA TRACON SMA TRACON (SMA)
Mon 04:09:03 PM 40.6361 -79.0628 57° Northeast 421 484 18,600 1,161 Level FAA TRACON SMA TRACON (SMA)
Mon 04:10:15 PM 40.6803 -78.7653 79° East 419 482 20,400 1,227 Climbing Cleveland Center
Mon 04:11:15 PM 40.6983 -78.6086 81° East 425 489 21,300 950 Climbing Cleveland Center
Mon 04:12:15 PM 40.7186 -78.4489 80° East 430 495 22,300 1,020 Climbing Cleveland Center
Mon 04:14:35 PM 40.8456 -78.1233 63° Northeast 415 478 24,700 1,050 Climbing New York Center
Mon 04:15:35 PM 40.9103 -77.9847 58° Northeast 428 493 25,800 1,091 Climbing New York Center
Mon 04:16:36 PM 40.9306 -77.8247 80° East 428 493 26,900 595 Climbing New York Center
Mon 04:17:36 PM 40.9444 -77.6558 84° East 444 511 27,000 50 Climbing New York Center
Mon 04:18:37 PM 40.9589 -77.4786 84° East 465 535 27,000  Level New York Center
Mon 04:19:34 PM 40.9731 -77.2986 84° East 476 548 27,000 -356 Level New York Center
Mon 04:20:35 PM 40.9706 -77.1169 91° East 489 563 26,300 -1,041 Descending New York Center
Mon 04:21:35 PM 40.9592 -76.9344 95° East 494 568 24,900 -1,650 Descending New York Center
Mon 04:22:35 PM 40.9494 -76.7631 94° East 494 568 23,000 -1,884 Descending New York Center
Mon 04:23:36 PM 40.9383 -76.6056 95° East 457 526 21,100 -1,869 Descending New York Center
Mon 04:24:37 PM 40.9308 -76.4647 94° East 410 472 19,200 -1,576 Descending New York Center
Mon 04:25:34 PM 40.9261 -76.3408 93° East 375 432 18,000 -615 Descending New York Center
Mon 04:26:34 PM 40.9117 -76.2050 98° East 369 425 18,000 -992 Level New York Center
Mon 04:27:35 PM 40.8750 -76.0483 107° East 390 449 16,000 -1,820 Descending New York Center
Mon 04:28:36 PM 40.8450 -75.9281 108° East 374 430 14,300 -1,488 Descending New York Center
Mon 04:29:36 PM 40.8167 -75.8108 108° East 346 398 13,000 -694 Descending New York Center
Mon 04:30:37 PM 40.7861 -75.6933 109° East 333 383 12,900 -50 Descending New York Center
Mon 04:31:35 PM 40.7592 -75.5872 109° East 333 383 12,900 -51 Level New York Center
Mon 04:32:34 PM 40.7272 -75.4536 107° East 333 383 12,800 -500 Descending New York Center
Mon 04:33:35 PM 40.7025 -75.3342 105° East 333 383 11,900 -893 Descending New York Center
Mon 04:34:35 PM 40.6817 -75.2261 104° East 338 389 11,000 -885 Descending New York Center
Mon 04:35:37 PM 40.6419 -75.1169 116° Southeast 333 383 10,100 -555 Descending New York Center
Mon 04:36:34 PM 40.5822 -75.0392 135° Southeast 289 333 9,900 -102 Descending New York Center
Mon 04:37:35 PM 40.5267 -74.9675 136° Southeast 281 323 9,900  Level New York Center
Mon 04:38:36 PM 40.4686 -74.8986 138° Southeast 281 323 9,900 50 Level New York Center
Mon 04:39:34 PM 40.4128 -74.8269 136° Southeast 281 323 10,000 50 Climbing New York Center
Mon 04:40:35 PM 40.3783 -74.7350 116° Southeast 276 318 10,000 -50 Level New York Center
Mon 04:41:35 PM 40.3417 -74.6486 119° Southeast 276 318 9,900 -496 Descending New York Center
Mon 04:42:36 PM 40.3133 -74.5572 112° Southeast 270 311 9,000 -454 Descending New York Center
Mon 04:43:34 PM 40.3394 -74.4606 70° East 250 288 9,000 -254 Level New York Center
Mon 04:44:34 PM 40.3736 -74.3644 65° Northeast 278 320 8,500 -698 Descending New York Center
Mon 04:45:43 PM 40.4333 -74.2667 51° Northeast 283 326 7,500 -651 Descending New York TRACON
Mon 04:46:43 PM 40.5000 -74.2000 37° Northeast 281 323 7,100 -650 Descending New York TRACON
Mon 04:47:43 PM 40.5500 -74.1333 45° Northeast 288 331 6,200 -1,250 Descending New York TRACON
Mon 04:48:43 PM 40.6167 -74.0667 37° Northeast 290 334 4,600 -1,050 Descending New York TRACON
Mon 04:49:43 PM 40.6833 -74.0333 21° North 271 312 4,100 -250 Descending New York TRACON
Mon 04:50:43 PM 40.7500 -74.0167 11° North 264 304 4,100  Level New York TRACON
Mon 04:51:43 PM 40.8167 -73.9667 30° Northeast 237 273 4,100  Level New York TRACON
Mon 04:52:43 PM 40.8667 -73.9333 27° Northeast 200 230 4,100  Level New York TRACON
Mon 04:53:43 PM 40.9167 -73.9167 14° North 203 234 4,100  Level New York TRACON
Mon 04:54:43 PM 40.9500 -73.8500 56° Northeast 206 237 4,100 -250 Level New York TRACON
Mon 04:55:43 PM 40.9333 -73.7833 108° East 197 227 3,600 -500 Descending New York TRACON

Login

Don't have an account? Register now (free) for customized features, flight alerts, and more!